| time (UTC) | temp F | wind direction | speed MPH | gust MPH | rain 1hr in | rain 24hr in | rain mn in | humidity % | barometer mb |
| 20260902141538 | 81 | 57 | 0.0 | 5.0 | 0.00 | 0.00 | 0.00 | 87 | 1017.3 |
| 20260902140004 | 79 | 284 | 0.0 | 2.0 | 0.00 | 0.00 | 0.00 | 90 | 1017.2 |
| 20260902134501 | 77 | 285 | 0.0 | 4.0 | 0.00 | 0.00 | 0.00 | 93 | 1017.1 |
| 20260902133104 | 76 | 284 | 1.0 | 5.0 | 0.00 | 0.00 | 0.00 | 95 | 1017.1 |
| 20260902131552 | 74 | 217 | 0.0 | 0.0 | 0.00 | 0.00 | 0.00 | 99 | 1017.2 |
| 20260902130048 | 73 | 217 | 0.0 | 0.0 | 0.00 | 0.00 | 0.00 | 99 | 1017.2 |
| 20260902124544 | 72 | 217 | 0.0 | 0.0 | 0.00 | 0.00 | 0.00 | 100 | 1017.1 |
| 20260902123043 | 71 | 217 | 0.0 | 0.0 | 0.00 | 0.00 | 0.00 | 99 | 1017.1 |
| 20260902121543 | 70 | 217 | 0.0 | 0.0 | 0.00 | 0.00 | 0.00 | 99 | 1017.2 |
| 20260902120041 | 70 | 217 | 0.0 | 0.0 | 0.00 | 0.00 | 0.00 | 99 | 1017.1 |
| 20260902114538 | 69 | 217 | 0.0 | 0.0 | 0.00 | 0.00 | 0.00 | 99 | 1016.9 |
| 20260902113036 | 69 | 217 | 0.0 | 0.0 | 0.00 | 0.00 | 0.00 | 99 | 1016.8 |
| 20260902111533 | 69 | 217 | 0.0 | 0.0 | 0.00 | 0.00 | 0.00 | 98 | 1016.7 |
| 20260902110044 | 69 | 217 | 0.0 | 0.0 | 0.00 | 0.00 | 0.00 | 99 | 1016.5 |
| 20260902104550 | 69 | 217 | 0.0 | 0.0 | 0.00 | 0.00 | 0.00 | 98 | 1016.5 |
| 20260902103046 | 69 | 217 | 0.0 | 0.0 | 0.00 | 0.00 | 0.00 | 98 | 1016.6 |
| 20260902101527 | 69 | 217 | 0.0 | 0.0 | 0.00 | 0.00 | 0.00 | 99 | 1016.6 |
| 20260902100025 | 69 | 217 | 0.0 | 0.0 | 0.00 | 0.00 | 0.00 | 98 | 1016.6 |
| 20260902094522 | 70 | 217 | 0.0 | 0.0 | 0.00 | 0.00 | 0.00 | 98 | 1016.4 |
| 20260902093021 | 70 | 217 | 0.0 | 0.0 | 0.00 | 0.00 | 0.00 | 98 | 1016.4 |
| 20260902091517 | 70 | 217 | 0.0 | 0.0 | 0.00 | 0.00 | 0.00 | 98 | 1016.4 |
| 20260902090024 | 70 | 217 | 0.0 | 0.0 | 0.00 | 0.00 | 0.00 | 98 | 1016.4 |
| 20260902084514 | 70 | 217 | 0.0 | 0.0 | 0.00 | 0.01 | 0.00 | 98 | 1016.2 |
| 20260902083011 | 70 | 217 | 0.0 | 0.0 | 0.00 | 0.01 | 0.00 | 98 | 1016.0 |
| 20260902081509 | 71 | 217 | 0.0 | 0.0 | 0.00 | 0.01 | 0.00 | 98 | 1015.9 |
| 20260902080010 | 71 | 217 | 0.0 | 0.0 | 0.00 | 0.01 | 0.00 | 98 | 1015.8 |
| 20260902074506 | 71 | 217 | 0.0 | 0.0 | 0.00 | 0.01 | 0.00 | 98 | 1015.9 |
| 20260902073006 | 71 | 217 | 0.0 | 0.0 | 0.00 | 0.01 | 0.00 | 98 | 1016.0 |
| 20260902071504 | 71 | 216 | 0.0 | 0.0 | 0.00 | 0.01 | 0.00 | 98 | 1015.8 |
| 20260902070007 | 71 | 216 | 0.0 | 0.0 | 0.00 | 0.01 | 0.00 | 98 | 1015.7 |
| 20260902064605 | 72 | 216 | 0.0 | 0.0 | 0.00 | 0.01 | 0.00 | 98 | 1015.7 |
| 20260902063110 | 72 | 216 | 0.0 | 0.0 | 0.00 | 0.01 | 0.00 | 98 | 1015.7 |
| 20260902061620 | 72 | 216 | 0.0 | 0.0 | 0.00 | 0.01 | 0.00 | 98 | 1015.9 |
| 20260902054554 | 72 | 215 | 0.0 | 0.0 | 0.00 | 0.01 | 0.00 | 98 | 1015.7 |
| 20260902053049 | 73 | 215 | 0.0 | 0.0 | 0.00 | 0.01 | 0.00 | 97 | 1015.5 |
| 20260902051558 | 73 | 215 | 0.0 | 0.0 | 0.00 | 0.01 | 0.00 | 97 | 1015.5 |
| 20260902050040 | 73 | 215 | 0.0 | 0.0 | 0.00 | 0.01 | 0.00 | 97 | 1015.5 |
| 20260902044601 | 73 | 215 | 0.0 | 0.0 | 0.00 | 0.01 | 0.01 | 97 | 1015.6 |
| 20260902043046 | 74 | 215 | 0.0 | 0.0 | 0.00 | 0.01 | 0.01 | 97 | 1015.5 |
| 20260902041543 | 74 | 215 | 0.0 | 0.0 | 0.00 | 0.01 | 0.01 | 97 | 1015.5 |
| 20260902040038 | 74 | 215 | 0.0 | 0.0 | 0.00 | 0.01 | 0.01 | 97 | 1015.5 |
| 20260902034509 | 74 | 215 | 0.0 | 0.0 | 0.00 | 0.01 | 0.01 | 96 | 1015.5 |
| 20260902033008 | 75 | 215 | 0.0 | 1.0 | 0.00 | 0.01 | 0.01 | 96 | 1015.5 |
| 20260902031552 | 75 | 215 | 0.0 | 1.0 | 0.00 | 0.01 | 0.01 | 96 | 1015.4 |
| 20260902030036 | 75 | 214 | 0.0 | 2.0 | 0.00 | 0.01 | 0.01 | 96 | 1015.5 |
| 20260902024508 | 76 | 213 | 0.0 | 0.0 | 0.00 | 0.01 | 0.01 | 95 | 1015.5 |
| 20260902023014 | 76 | 213 | 0.0 | 0.0 | 0.00 | 0.01 | 0.01 | 95 | 1015.6 |
| 20260902021535 | 76 | 213 | 0.0 | 0.0 | 0.00 | 0.01 | 0.01 | 95 | 1015.4 |
| 20260902020035 | 76 | 213 | 0.0 | 1.0 | 0.00 | 0.01 | 0.01 | 94 | 1015.4 |
| 20260902014506 | 77 | 213 | 0.0 | 1.0 | 0.00 | 0.01 | 0.01 | 94 | 1015.4 |
| 20260902013005 | 77 | 213 | 0.0 | 1.0 | 0.00 | 0.01 | 0.01 | 93 | 1015.2 |
| 20260902011501 | 78 | 213 | 0.0 | 2.0 | 0.00 | 0.01 | 0.01 | 92 | 1015.2 |
| 20260902010000 | 78 | 213 | 0.0 | 4.0 | 0.00 | 0.01 | 0.01 | 92 | 1015.1 |
| 20260902004600 | 79 | 213 | 0.0 | 2.0 | 0.00 | 0.01 | 0.01 | 91 | 1014.7 |
| 20260902003100 | 79 | 213 | 0.0 | 4.0 | 0.00 | 0.01 | 0.01 | 90 | 1014.7 |
| 20260902001602 | 80 | 213 | 0.0 | 4.0 | 0.00 | 0.01 | 0.01 | 89 | 1014.7 |
| 20260902000057 | 81 | 211 | 2.0 | 5.0 | 0.00 | 0.01 | 0.01 | 87 | 1014.6 |
| 20260901234604 | 82 | 209 | 3.0 | 5.0 | 0.00 | 0.01 | 0.01 | 85 | 1014.6 |
| 20260901233055 | 86 | 159 | 3.0 | 5.0 | 0.00 | 0.01 | 0.01 | 78 | 1014.5 |
| 20260901231558 | 90 | 28 | 1.0 | 4.0 | 0.00 | 0.01 | 0.01 | 70 | 1014.4 |
| 20260901230105 | 91 | 27 | 1.0 | 4.0 | 0.00 | 0.01 | 0.01 | 66 | 1014.5 |
| 20260901224551 | 91 | 26 | 4.0 | 7.0 | 0.00 | 0.01 | 0.01 | 64 | 1014.5 |
| 20260901223050 | 91 | 9 | 0.0 | 5.0 | 0.00 | 0.01 | 0.01 | 66 | 1014.4 |
| 20260901221604 | 91 | 313 | 3.0 | 7.0 | 0.00 | 0.01 | 0.01 | 64 | 1014.6 |
| 20260901220017 | 92 | 315 | 4.0 | 7.0 | 0.00 | 0.01 | 0.01 | 60 | 1014.7 |
| 20260901214516 | 92 | 309 | 1.0 | 5.0 | 0.00 | 0.01 | 0.01 | 63 | 1014.9 |
| 20260901213024 | 92 | 312 | 0.0 | 6.0 | 0.00 | 0.01 | 0.01 | 61 | 1015.0 |
| 20260901211514 | 92 | 304 | 4.0 | 7.0 | 0.00 | 0.01 | 0.01 | 63 | 1015.2 |
| 20260901210014 | 92 | 302 | 2.0 | 7.0 | 0.00 | 0.01 | 0.01 | 61 | 1015.2 |
| 20260901204515 | 93 | 309 | 2.0 | 5.0 | 0.00 | 0.01 | 0.01 | 64 | 1015.3 |
| 20260901203006 | 93 | 315 | 1.0 | 5.0 | 0.00 | 0.01 | 0.01 | 64 | 1015.4 |
| 20260901201504 | 92 | 315 | 1.0 | 6.0 | 0.00 | 0.01 | 0.01 | 61 | 1015.5 |
| 20260901200002 | 93 | 315 | 2.0 | 8.0 | 0.00 | 0.01 | 0.01 | 63 | 1015.5 |
| 20260901194501 | 92 | 318 | 5.0 | 9.0 | 0.00 | 0.01 | 0.01 | 64 | 1015.6 |
| 20260901193056 | 92 | 309 | 4.0 | 8.0 | 0.00 | 0.01 | 0.01 | 65 | 1015.7 |
| 20260901191553 | 93 | 311 | 5.0 | 8.0 | 0.00 | 0.01 | 0.01 | 60 | 1015.9 |
| 20260901190051 | 94 | 287 | 3.0 | 6.0 | 0.00 | 0.01 | 0.01 | 60 | 1015.9 |
| 20260901184554 | 94 | 35 | 5.0 | 9.0 | 0.00 | 0.01 | 0.01 | 54 | 1016.0 |
| 20260901183024 | 94 | 148 | 2.0 | 6.0 | 0.00 | 0.01 | 0.01 | 55 | 1016.1 |
| 20260901181515 | 93 | 144 | 2.0 | 9.0 | 0.00 | 0.01 | 0.01 | 56 | 1016.3 |
| 20260901180015 | 93 | 105 | 3.0 | 5.0 | 0.00 | 0.01 | 0.01 | 58 | 1016.5 |
| 20260901174508 | 92 | 157 | 2.0 | 6.0 | 0.00 | 0.01 | 0.01 | 62 | 1016.7 |
| 20260901173006 | 92 | 66 | 4.0 | 8.0 | 0.00 | 0.01 | 0.01 | 62 | 1016.8 |
| 20260901171506 | 91 | 97 | 3.0 | 9.0 | 0.00 | 0.01 | 0.01 | 63 | 1017.0 |
| 20260901170104 | 91 | 65 | 3.0 | 9.0 | 0.00 | 0.01 | 0.01 | 64 | 1017.1 |
| 20260901170000 | 91 | 65 | 5.0 | 9.0 | 0.00 | 0.01 | 0.01 | 65 | 1017.1 |
| 20260901164558 | 91 | 88 | 4.0 | 9.0 | 0.00 | 0.01 | 0.01 | 66 | 1017.1 |
| 20260901163113 | 90 | 57 | 4.0 | 8.0 | 0.00 | 0.01 | 0.01 | 70 | 1017.0 |
| 20260901161603 | 89 | 57 | 5.0 | 8.0 | 0.00 | 0.01 | 0.01 | 70 | 1016.9 |
| 20260901160053 | 89 | 38 | 6.0 | 10.0 | 0.00 | 0.01 | 0.01 | 70 | 1017.1 |
| 20260901154548 | 88 | 32 | 4.0 | 11.0 | 0.00 | 0.01 | 0.01 | 72 | 1017.1 |
| 20260901153043 | 87 | 41 | 4.0 | 8.0 | 0.00 | 0.01 | 0.01 | 74 | 1017.2 |
| 20260901151550 | 86 | 18 | 5.0 | 8.0 | 0.00 | 0.01 | 0.01 | 75 | 1017.3 |
| 20260901150037 | 85 | 94 | 0.0 | 5.0 | 0.00 | 0.01 | 0.01 | 78 | 1017.2 |
| 20260901144532 | 83 | 114 | 1.0 | 5.0 | 0.00 | 0.01 | 0.01 | 82 | 1017.3 |
| 20260901143026 | 81 | 116 | 1.0 | 4.0 | 0.00 | 0.01 | 0.01 | 84 | 1017.4 |